669  
ASUS44 KSHV 010610  
RWRSHV  
 
WEATHER ROUNDUP FOR THE FOUR STATE AREA  
NATIONAL WEATHER SERVICE SHREVEPORT LA  
100 AM CDT MON MAY 01 2017  
 
NOTE: "FAIR" INDICATES FEW OR NO CLOUDS BELOW 12000 FEET  
WITH NO SIGNIFICANT WEATHER AND/OR S TO VISIBILITY
.  
 
!LAZ001-LAZ014-TXZ097-010700  
SHREVEPORT...MONROE...TEXARKANA RADIOS  
 
CITY SKY/WX TMP DP RH WIND PRES REMARKS
 
SHREVEPORT CLEAR 57 34 41 W8 29.89S  
MONROE CLEAR 54 48 80 SW7 29.90R  
NATCHITOCHES CLEAR 51 49 93 SW8 29.94R  
TEXARKANA CLEAR 53 35 50 W17G32 29.83S  

 
 
!LAZ001-LAZ014-TXZ097-010700  
OTHER LOCATIONS...  
 
CITY SKY/WX TMP DP RH WIND PRES REMARKS
 
DOWNTOWN SHV CLEAR 60 32 34 W13G21 29.89S  
BOSSIER CITY CLEAR 60 31 33 W15G22 29.89R  
RUSTON CLEAR 55 47 75 SW7 29.92S  
LITTLE ROCK PTCLDY 53 42 66 SW14G23 29.73S  
EL DORADO CLEAR 55 41 59 SW13G22 29.84R  
JACKSON CLEAR 60 50 69 SW8 29.90R  
NEW ORLEANS CLOUDY 66 55 67 NW15G22 29.93R  
HOUSTON CLEAR 56 48 74 CALM 29.97S  
LUFKIN CLEAR 51 47 86 SW3 29.96S  
TYLER CLEAR 52 37 56 W5 29.92R  
DAL FT WORTH CLEAR 55 34 45 W10 29.92S  

 
 
!TXZ136-TXZ165-010700  
TYLER...LUFKIN RADIOS  
 
CITY SKY/WX TMP DP RH WIND PRES REMARKS
 
TYLER CLEAR 52 37 56 W5 29.92R  
GILMER CLEAR 56 32 40 W9G17 29.90S  
LONGVIEW CLEAR 55 36 48 W6 29.91R  
LUFKIN CLEAR 51 47 86 SW3 29.96S  

 
 
!TXZ136-TXZ165-010700  
OTHER LOCATIONS...  
 
CITY SKY/WX TMP DP RH WIND PRES REMARKS
 
NACOGDOCHES CLEAR 39 39 100 CALM 29.94S  
BEAUMONT CLEAR 57 51 80 MISG 29.96S  
HOUSTON CLEAR 56 48 74 CALM 29.97S  
COLLEGE STN CLEAR 56 46 69 N5 29.99R  
AUSTIN CLEAR 52 47 83 W6 29.99R  
DAL FT WORTH CLEAR 55 34 45 W10 29.92S  
TEXARKANA CLEAR 53 35 50 W17G32 29.83S  
SHREVEPORT CLEAR 57 34 41 W8 29.89S  
FORT POLK CLEAR 57 48 73 SW7 29.93S  
LAKE CHARLES CLEAR 55 52 89 CALM 29.96S  

 
 
 
CLICK HERE TO GO TO PREVIOUS BULLETINS.

The Nexlab LA Page
The Nexlab TX Page
The Nexlab AR Page
The Nexlab OK Page Main Text Page